Location: Gleizolles
(44.4833°N, 6.7667°E)
Time: 20:25:36
(UTC+00:00)

A-11 Canister half - Pass Details

Date: 30 June 2024
Orbit: 1524 x 1684 km, 47.3° (Epoch: 18 July)

Event Time Altitude Azimuth Distance (km) Brightness Sun altitude
Rises 14:53:58 0° 289° (WNW) 4,714 12.2 44.7°
Reaches altitude 10° 14:57:02 10° 289° (WNW) 3,716 11.9 44.1°
Maximum altitude 15:06:24 84° 203° (SSW) 1,534 9.9 42.5°
Drops below altitude 10° 15:15:43 10° 116° (ESE) 3,694 10.7 40.8°
Sets 15:18:45 0° 116° (ESE) 4,684 11.2 40.3°
